Location: site
(53.0000°N, 23.0500°E)
Time: 22:33:06
(UTC+01:00)

SAOCOM 1-A - Pass Details

Date: 24 January 2020
Orbit: 621 x 623 km, 97.9° (Epoch: 24 February)

Event Time Altitude Azimuth Distance (km) Brightness Sun altitude
Exits shadow 19:20:09 - 351° (N) 2,047 ? -30.2°
Reaches altitude 10° 19:20:17 10° 350° (N) 2,006 ? -30.3°
Maximum altitude 19:23:34 21° 301° (WNW) 1,396 ? -30.7°
Drops below altitude 10° 19:26:51 10° 252° (WSW) 1,995 ? -31.2°
Sets 19:29:25 0° 236° (WSW) 2,896 ? -31.6°
